Location: Breux
(46.3269°N, 3.2993°E)
Time: 09:57:06
(UTC+00:00)

CZ-2C R/B - Pass Details

Date: 09 April 2020
Orbit: 785 x 870 km, 98.3° (Epoch: 04 June)

Event Time Altitude Azimuth Distance (km) Brightness Sun altitude
Rises 20:57:28 0° 7° (N) 3,289 6.3 -23.7°
Reaches altitude 10° 20:59:55 10° 360° (N) 2,356 5.6 -24.0°
Maximum altitude 21:04:41 39° 293° (WNW) 1,173 3.9 -24.6°
Drops below altitude 10° 21:09:29 10° 225° (SW) 2,361 5.0 -25.2°
Sets 21:11:56 0° 218° (SW) 3,296 5.7 -25.5°
